KA2QBS Weather Reports


Display with metric or nautical units.
time (UTC)temp
F
wind
direction
speed
MPH
gust
MPH
rain 1hr
in
rain 24hr
in
rain mn
in
humidity
%
barometer
mb
20260904214514 75 336 1.0 11.0 0.00 0.00 0.00 63 1011.7
20260904213014 75 266 3.0 8.0 0.00 0.00 0.00 60 1012.0
20260904211515 76 257 3.0 13.0 0.00 0.00 0.00 60 1011.9
20260904210019 76 301 7.0 13.0 0.00 0.00 0.00 58 1011.8
20260904204511 76 275 3.0 17.0 0.00 0.00 0.00 61 1012.0
20260904203013 76 284 4.0 13.0 0.00 0.00 0.00 60 1012.1
20260904201509 76 282 5.0 12.0 0.00 0.00 0.00 59 1012.4
20260904200010 76 273 6.0 14.0 0.00 0.00 0.00 59 1012.3
20260904194509 77 328 4.0 16.0 0.00 0.00 0.00 58 1012.2
20260904193006 78 276 2.0 11.0 0.00 0.00 0.00 58 1012.2
20260904191506 78 288 5.0 13.0 0.00 0.00 0.00 58 1012.2
20260904190005 78 302 5.0 17.0 0.00 0.00 0.00 62 1012.4
20260904184504 78 262 7.0 18.0 0.00 0.00 0.00 59 1012.3
20260904183005 78 288 7.0 18.0 0.00 0.00 0.00 60 1012.5
20260904181503 78 295 5.0 14.0 0.00 0.00 0.00 61 1012.5
20260904180104 77 281 4.0 11.0 0.00 0.00 0.00 63 1012.7
20260904174558 77 141 1.0 8.0 0.00 0.00 0.00 67 1012.7
20260904173106 76 278 2.0 7.0 0.00 0.00 0.00 65 1012.9
20260904171555 75 272 2.0 7.0 0.00 0.00 0.00 66 1013.0
20260904170054 76 272 0.0 9.0 0.00 0.00 0.00 68 1013.1
20260904164553 76 269 0.0 3.0 0.00 0.03 0.00 72 1013.0
20260904163055 74 268 0.0 10.0 0.00 0.03 0.00 76 1013.1
20260904161600 74 273 1.0 7.0 0.00 0.03 0.00 75 1013.1
20260904160053 73 267 0.0 4.0 0.00 0.03 0.00 75 1013.3
20260904154551 75 269 0.0 1.0 0.00 0.03 0.00 75 1013.5
20260904153046 74 261 0.0 3.0 0.00 0.03 0.00 77 1013.4
20260904151544 73 259 0.0 3.0 0.00 0.03 0.00 78 1013.8
20260904150041 72 272 3.0 9.0 0.00 0.03 0.00 80 1013.7
20260904144538 71 261 1.0 6.0 0.00 0.03 0.00 82 1013.9
20260904143037 71 274 1.0 5.0 0.00 0.03 0.00 86 1014.0
20260904141537 69 260 0.0 1.0 0.00 0.03 0.00 87 1014.1
20260904140031 69 288 0.0 6.0 0.00 0.03 0.00 87 1014.0
20260904134537 68 290 0.0 0.0 0.00 0.03 0.00 89 1013.9
20260904133025 67 289 0.0 0.0 0.00 0.03 0.00 93 1013.9
20260904131521 65 289 0.0 0.0 0.00 0.03 0.00 97 1013.9
20260904130021 64 289 0.0 0.0 0.00 0.03 0.00 98 1014.1
20260904124515 63 289 0.0 0.0 0.00 0.03 0.00 99 1014.1
20260904123012 62 289 0.0 0.0 0.00 0.03 0.00 99 1014.1
20260904121511 61 289 0.0 1.0 0.00 0.03 0.00 99 1014.1
20260904120009 61 289 0.0 0.0 0.00 0.03 0.00 99 1014.1
20260904114509 60 289 0.0 0.0 0.00 0.04 0.00 100 1014.0
20260904113007 58 289 0.0 0.0 0.00 0.04 0.00 100 1014.0
20260904111505 57 289 0.0 0.0 0.00 0.04 0.00 99 1013.7
20260904110004 57 289 0.0 0.0 0.00 0.04 0.00 98 1013.7
20260904104502 57 289 0.0 0.0 0.00 0.04 0.00 98 1013.4
20260904103001 57 289 0.0 0.0 0.00 0.04 0.00 98 1013.3
20260904101600 57 289 0.0 0.0 0.00 0.04 0.00 98 1013.2
20260904100105 57 289 0.0 0.0 0.00 0.04 0.00 99 1013.0
20260904094601 57 289 0.0 0.0 0.00 0.04 0.00 99 1012.9
20260904093055 57 289 0.0 0.0 0.00 0.04 0.00 98 1012.6
20260904091552 58 289 0.0 0.0 0.00 0.04 0.00 98 1012.7
20260904090104 58 289 0.0 0.0 0.00 0.04 0.00 98 1012.5
20260904084556 58 289 0.0 0.0 0.00 0.04 0.00 98 1012.3
20260904083126 59 289 0.0 0.0 0.00 0.04 0.00 98 1012.4
20260904081549 59 289 0.0 0.0 0.00 0.04 0.00 98 1012.2
20260904080049 59 289 0.0 0.0 0.00 0.04 0.00 98 1012.2
20260904074549 59 289 0.0 0.0 0.00 0.04 0.00 98 1012.3
20260904073048 59 289 0.0 0.0 0.00 0.04 0.00 98 1012.1
20260904071601 59 289 0.0 0.0 0.00 0.04 0.00 98 1011.9
20260904070109 59 289 0.0 0.0 0.00 0.04 0.00 98 1012.0
20260904064542 59 289 0.0 0.0 0.00 0.04 0.00 98 1012.1
20260904063044 59 289 0.0 0.0 0.00 0.04 0.00 97 1012.1
20260904061538 60 289 0.0 0.0 0.00 0.04 0.00 97 1012.3
20260904060037 60 289 0.0 0.0 0.00 0.04 0.00 97 1012.5
20260904054545 60 289 0.0 0.0 0.00 0.04 0.00 97 1012.6
20260904053048 60 289 0.0 0.0 0.00 0.04 0.00 96 1012.7
20260904051538 61 289 0.0 0.0 0.00 0.04 0.00 97 1012.6
20260904050037 61 289 0.0 0.0 0.00 0.04 0.00 97 1012.7
20260904044530 61 289 0.0 0.0 0.00 0.04 0.00 97 1012.5
20260904043035 61 289 0.0 0.0 0.00 0.04 0.00 97 1012.7
20260904041527 61 289 0.0 0.0 0.00 0.04 0.00 96 1012.7
20260904040025 61 289 0.0 0.0 0.00 0.04 0.00 96 1012.9
20260904034522 62 286 0.0 0.0 0.00 0.07 0.04 95 1012.9
20260904033022 63 286 0.0 0.0 0.00 0.07 0.04 95 1012.9
20260904031530 63 286 0.0 0.0 0.00 0.07 0.04 95 1012.9
20260904030018 63 286 0.0 0.0 0.00 0.07 0.04 94 1012.9
20260904024517 64 286 0.0 0.0 0.00 0.16 0.04 94 1012.8
20260904023015 64 285 0.0 0.0 0.00 0.16 0.04 93 1012.9
20260904021522 65 285 0.0 0.0 0.00 0.16 0.04 92 1013.1
20260904020012 65 285 0.0 0.0 0.00 0.16 0.04 91 1013.2
20260904014511 66 285 0.0 0.0 0.00 0.21 0.04 91 1013.2
20260904013012 66 285 0.0 0.0 0.00 0.21 0.04 92 1013.2
20260904011511 67 285 0.0 0.0 0.00 0.21 0.04 92 1013.2
20260904010010 67 285 0.0 0.0 0.00 0.21 0.04 91 1013.2
20260904004510 68 285 0.0 0.0 0.00 0.21 0.04 88 1013.1
20260904003008 68 284 0.0 0.0 0.00 0.21 0.04 87 1013.0
20260904001508 69 284 0.0 0.0 0.00 0.21 0.04 89 1012.9
20260904000008 69 284 0.0 0.0 0.00 0.21 0.04 85 1012.9
20260903234507 70 284 0.0 0.0 0.00 0.21 0.04 84 1012.7
20260903233008 70 284 0.0 0.0 0.00 0.21 0.04 85 1012.5
20260903231505 71 284 0.0 0.0 0.00 0.21 0.04 84 1012.4
20260903230006 73 284 0.0 0.0 0.00 0.21 0.04 82 1012.4
20260903224515 76 284 0.0 0.0 0.00 0.21 0.04 77 1012.5
20260903223004 77 284 0.0 0.0 0.00 0.21 0.04 72 1012.3
20260903221505 78 284 0.0 0.0 0.00 0.21 0.04 68 1012.4
20260903220006 79 292 0.0 1.0 0.00 0.21 0.04 67 1012.2